Change the Weather History Date:

Sunday, March 3, 2013

  Actual Average Record
Temperature  
Mean Temperature 25 °F 33 °F  
Max Temperature 30 °F 41 °F 71 °F (1976)
Min Temperature 19 °F 24 °F -5 °F (1943)
Degree Days  
Heating Degree Days 40 32  
Month to date heating degree days 116 98  
Since 1 July heating degree days 4572 4674  
Cooling Degree Days 0 0  
Month to date cooling degree days 0 0  
Year to date cooling degree days 0 0  
Moisture  
Dew Point 13 °F    
Average Humidity 62    
Maximum Humidity 77    
Minimum Humidity 46    
Precipitation  
Precipitation T in 0.08 in 0.56 in (1970)
Month to date precipitation T 0.23  
Year to date precipitation 6.44 4.35  
Snow  
Snow T in 0.20 in - ()
Month to date snowfall T 0.7  
Since 1 July snowfall 22.5 31.2  
Snow Depth T in    
Sea Level Pressure  
Sea Level Pressure 30.06 in    
Wind  
Wind Speed 7 mph (NW)    
Max Wind Speed 16 mph    
Max Gust Speed 21 mph    
Visibility 10 miles    
Events Snow    
T = Trace of Precipitation, MM = Missing Value Source: NWS Daily Summary

Daily Weather History Graph

Daily Weather History Graph

Search for Another Location

Airport or City:

Trip Planner

Search our weather history database for the weather conditions in past years. The results will help you decide how hot, cold, wet, or windy it might be!

Date:

Astronomy

Mar. 03, 2013 Rise Set
Actual Time 7:06 AM EST 6:28 PM EST
Civil Twilight 6:38 AM EST 6:56 PM EST
Nautical Twilight 6:06 AM EST 7:28 PM EST
Astronomical Twilight 5:34 AM EST 8:00 PM EST
Moon 12:10 AM EST (3/3) 10:15 AM EST (3/3)
Length of Visible Light 12h 17m
Length of Day
11h 22m
Waning Gibbous, 64% of the Moon is Illuminated
Mar 3
Waning Gibbous
Mar 4
Last Quarter
Mar 11
New
Mar 19
First Quarter
Mar 27
Full

Hourly Weather History & Observations

Time (EST) Temp. Windchill Dew Point Humidity Pressure Visibility Wind Dir Wind Speed Gust Speed Precip Events Conditions
12:52 AM 23.0 °F 18.4 °F 15.8 °F 74% 30.06 in 10.0 mi NW 3.5 mph - N/A   Overcast
1:31 AM 23.0 °F 13.1 °F 15.8 °F 74% 30.06 in 8.0 mi NW 9.2 mph - 0.00 in Snow Light Snow
1:52 AM 23.0 °F 13.1 °F 15.1 °F 72% 30.09 in 8.0 mi NW 9.2 mph - 0.00 in Snow Light Snow
2:52 AM 23.0 °F 13.9 °F 15.1 °F 72% 30.07 in 10.0 mi NW 8.1 mph - 0.00 in   Overcast
3:52 AM 21.9 °F 12.5 °F 15.1 °F 75% 30.06 in 9.0 mi NW 8.1 mph - 0.00 in Snow Light Snow
4:52 AM 21.9 °F 12.5 °F 15.1 °F 75% 30.06 in 10.0 mi NW 8.1 mph - N/A   Overcast
5:52 AM 23.0 °F 13.1 °F 12.2 °F 63% 30.03 in 10.0 mi WNW 9.2 mph - N/A   Overcast
6:52 AM 21.2 °F 11.7 °F 12.2 °F 68% 30.03 in 10.0 mi NW 8.1 mph - N/A   Overcast
7:52 AM 21.9 °F 13.4 °F 15.1 °F 75% 30.07 in 9.0 mi NW 6.9 mph - 0.00 in   Overcast
8:52 AM 23.0 °F 12.4 °F 15.1 °F 72% 30.08 in 10.0 mi NW 10.4 mph - N/A   Overcast
9:30 AM 23.0 °F 13.1 °F 10.4 °F 59% 30.05 in 10.0 mi NNW 9.2 mph - N/A   Overcast
9:52 AM 23.0 °F 14.7 °F 12.2 °F 63% 30.05 in 10.0 mi NW 6.9 mph 16.1 mph N/A   Overcast
10:52 AM 23.0 °F 12.4 °F 14.0 °F 68% 30.08 in 10.0 mi NW 10.4 mph - 0.00 in   Overcast
11:52 AM 23.0 °F 13.1 °F 12.0 °F 63% 30.08 in 10.0 mi WNW 9.2 mph - N/A   Overcast
12:52 PM 25.0 °F 14.8 °F 12.0 °F 58% 30.06 in 10.0 mi NW 10.4 mph - N/A   Overcast
1:52 PM 26.1 °F 18.4 °F 12.0 °F 55% 30.04 in 10.0 mi NW 6.9 mph - N/A   Mostly Cloudy
2:11 PM 26.6 °F 18.2 °F 10.4 °F 51% 30.01 in 10.0 mi NNW 8.1 mph - N/A   Scattered Clouds
2:52 PM 27.0 °F 18.0 °F 12.0 °F 53% 30.04 in 10.0 mi WNW 9.2 mph - N/A   Clear
3:52 PM 28.9 °F 18.2 °F 12.0 °F 49% 30.03 in 10.0 mi NW 13.8 mph - N/A   Scattered Clouds
4:52 PM 28.9 °F 19.8 °F 10.0 °F 45% 30.04 in 10.0 mi NW 10.4 mph - N/A   Partly Cloudy
5:52 PM 28.0 °F 19.3 °F 10.0 °F 47% 30.05 in 10.0 mi NW 9.2 mph - N/A   Partly Cloudy
6:52 PM 27.0 °F 20.5 °F 10.9 °F 51% 30.06 in 10.0 mi NW 5.8 mph - N/A   Clear
7:52 PM 25.0 °F - 12.0 °F 58% 30.07 in 10.0 mi Calm Calm - N/A   Clear
8:52 PM 21.9 °F - 12.9 °F 68% 30.08 in 10.0 mi Calm Calm - N/A   Clear
9:52 PM 19.9 °F - 12.0 °F 71% 30.09 in 10.0 mi Calm Calm - N/A   Clear
10:52 PM 19.0 °F 12.3 °F 12.9 °F 77% 30.08 in 10.0 mi WSW 4.6 mph - N/A   Clear
11:52 PM 23.0 °F 14.7 °F 14.0 °F 68% 30.05 in 10.0 mi WNW 6.9 mph - N/A   Clear